[[[{"header":{"parameterUnit":"kt","parameterCategory":2,"dx":1,"dy":1,"la1":30.253999710083008,"la2":30.299108505249023,"lo1":-89.0895004272461,"lo2":-89.04439544677734,"nx":28,"ny":28,"refTime":"2022-09-21T21:00:00:Z","depth":0,"parameterNumber":1,"parameterNumberName":"U-component_of_WINDS"},"data":[4.1785,4.1988,4.2058,4.2323,4.2432,4.2627,4.2719,4.2847,4.2967,4.321,4.3363,4.3458,4.3609,4.3811,4.3982,4.4022,4.409,4.4108,4.4152,4.3999,4.3983,4.3967,4.3923,4.4122,4.4122,4.43,4.4302,4.4303,4.1663,4.1772,4.1933,4.2137,4.2276,4.23,4.2466,4.2581,4.2756,4.2906,4.3061,4.3282,4.3467,4.3616,4.3807,4.3907,4.3931,4.3953,4.3948,4.3972,4.3811,4.3762,4.3931,4.3931,4.3931,4.3931,4.393,4.393,4.1461,4.158,4.1745,4.1922,4.2044,4.2182,4.2309,4.2422,4.2583,4.2788,4.2845,4.3045,4.3212,4.348,4.3589,4.3749,4.3738,4.3787,4.38,4.3811,4.3812,4.3544,4.3786,4.3786,4.3785,4.3785,4.3785,0,4.1336,4.1387,4.1547,4.1728,4.1861,4.2009,4.2158,4.2239,4.2376,4.2504,4.2696,4.2819,4.3064,4.3254,4.3451,4.3556,4.3598,4.3611,4.3645,4.362,4.3571,4.36,4.3333,4.3604,4.3603,4.3602,4.3601,4.3601,4.1138,4.1269,4.1477,4.158,4.1679,4.1844,4.1958,4.2069,4.2185,4.2387,4.2489,4.2681,4.284,4.3139,4.3274,4.3459,4.3482,4.3577,4.351,4.348,4.3484,4.3475,4.349,4.3587,4.3589,4.3591,4.3592,0,4.1019,4.1136,4.1363,4.1558,4.1611,4.1744,4.1912,4.2038,4.2135,4.2323,4.2373,4.2528,4.2716,4.2838,4.3079,4.3137,4.3361,4.3379,4.3303,4.3314,4.3411,4.34,4.3707,4.3753,4.3547,4.3549,4.3551,0,4.0896,4.1066,4.123,4.1356,4.1548,4.1655,4.1843,4.1946,4.2091,4.224,4.2305,4.2443,4.2577,4.2735,4.2821,4.3026,4.3072,4.3129,4.315,4.3123,4.3116,4.3189,4.3179,4.3192,4.319,4.3189,4.3187,0,4.0699,4.0986,4.1191,4.1276,4.1503,4.1597,4.1696,4.186,4.1972,4.2137,4.2211,4.2396,4.2498,4.2641,4.275,4.27,4.3004,4.2958,4.3062,4.306,4.3124,4.3119,4.3359,4.3185,4.3185,4.3184,4.3184,0,4.0619,4.078,4.106,4.1249,4.1321,4.1457,4.1645,4.179,4.1958,4.2021,4.2152,4.2211,4.24,4.2346,4.2609,4.2513,4.261,4.2682,4.2692,4.2717,4.2653,4.2772,4.2988,4.3016,4.2738,4.2735,4.2732,0,4.036,4.0674,4.0768,4.1033,4.1195,4.1256,4.141,4.1557,4.1653,4.1806,4.1914,4.2089,4.2074,4.2146,4.226,4.2379,4.2503,4.2366,4.2589,4.2596,4.2541,4.2741,4.2742,4.2927,4.2686,4.2691,4.2694,0,4.0175,4.0448,4.0488,4.059,4.08,4.0937,4.1114,4.131,4.1406,4.1566,4.1718,4.1968,4.1967,4.2086,4.2154,4.2267,4.2422,4.2252,4.2258,4.2278,4.2673,4.2673,4.2704,4.2444,4.245,4.2454,4.2658,0,4.0026,4.0199,4.0314,4.0536,4.066,4.0833,4.096,4.1075,4.1126,4.1224,4.1451,4.1607,4.181,4.1877,4.193,4.2148,4.2132,4.2129,4.2087,4.2216,4.2287,4.2315,4.1971,4.197,4.197,4.197,0,0,3.975,4.0001,4.01,4.0274,4.0385,4.0447,4.0621,4.0738,4.0972,4.1048,4.1024,4.1399,4.1528,4.179,4.1841,4.1923,4.1975,4.1925,4.2153,4.2173,4.2192,4.2265,4.2293,4.1969,4.1969,4.1969,4.1968,0,3.9722,3.9847,4.0016,4.014,4.0327,4.0422,4.0462,4.066,4.0731,4.0953,4.1004,4.1156,4.1454,4.1583,4.1688,4.1896,4.1927,4.1948,4.2016,4.2145,4.2165,4.2184,4.2259,4.2284,4.1967,4.1968,4.1968,0,3.9563,3.9706,3.9801,4.0056,4.018,4.0347,4.0331,4.0508,4.0633,4.0697,4.0917,4.1021,4.1206,4.1437,4.1546,4.1529,4.1876,4.179,4.1797,4.1812,4.1943,4.1967,4.1989,4.1703,4.1701,4.17,0,0,3.9521,3.9683,3.9873,4.006,4.0134,4.0278,4.0379,4.0442,4.0604,4.0669,4.0804,4.0962,4.1136,4.1248,4.1419,4.1655,4.1703,4.1752,4.1765,4.1775,4.1795,4.1928,4.1952,4.1694,4.1694,4.1694,0,0,3.9503,3.9729,3.9752,3.9985,4.0135,4.0338,4.0448,4.0482,4.0648,4.0643,4.076,4.0807,4.1026,4.1128,4.1038,4.1406,4.1361,4.1386,4.1332,4.135,4.1362,4.1333,4.1047,0,0,0,0,0,3.9539,3.9701,3.9719,3.9777,4.0102,4.0326,4.0369,4.0467,4.0432,4.0518,4.0636,4.0663,4.1104,4.1027,4.1084,4.1184,4.1623,4.1635,4.1647,4.1634,4.1651,4.1666,0,0,0,0,0,0,3.9563,3.9633,3.9715,3.9921,3.9996,4.0322,4.0284,4.0316,4.0426,4.0427,4.0639,4.067,4.076,4.1004,4.1055,4.1147,4.1031,4.1628,4.1638,4.1648,4.164,4.1654,4.1666,0,0,0,0,0,3.9582,3.9638,4.0133,3.992,3.9985,4.0154,4.0279,4.0305,4.0392,4.0576,4.0608,4.0456,4.076,4.0809,4.1035,4.1122,4.0997,4.1015,4.1635,4.1643,4.1651,4.1647,0,0,0,0,0,0,3.9596,3.9665,4.0148,4.0171,3.9866,4.0138,4.0183,4.0295,4.0536,4.0569,4.0398,4.0397,4.0762,4.08,4.0838,4.1107,4.0969,4.0988,4.0999,4.1641,4.1648,4.1654,0,0,0,0,0,0,3.9635,3.9684,4.016,4.0086,4.0102,4.0122,4.0163,4.037,4.0539,4.0345,4.0351,4.0395,4.0707,4.0794,4.0823,4.1143,4.0948,4.0965,4.0978,4.0986,4.1646,4.1652,0,0,0,0,0,0,3.9658,3.97,4.0081,4.0093,4.0107,4.0377,4.0307,4.0636,4.0471,4.0334,4.046,4.0454,4.07,4.0732,4.0814,4.112,4.1137,4.0948,4.096,4.0969,4.0975,0,0,0,0,0,0,0,3.9676,3.9369,4.0009,4.0099,4.011,4.0387,4.0394,4.04,4.047,4.0465,4.0461,4.0456,4.0846,4.0865,4.0885,4.1101,0,0,4.0946,4.0955,0,0,0,0,0,0,0,0,3.9354,3.9365,4.001,4.0014,4.0019,4.0388,4.0394,4.0399,4.0469,4.0466,4.0462,4.0458,4.0851,4.0867,4.0883,0,0,0,0,0,0,0,0,0,0,0,0,0,0,0,4.001,4.0014,0,4.0389,4.0393,4.0398,4.0469,4.0466,4.0463,4.046,4.0855,4.0868,4.0882,0,0,0,0,0,0,0,0,0,0,0,0,0,0,0,0,0,0,0,0,0,0,0,0,0,0,0,0,0,0,0,0,0,0,0,0,0,0,0,0,0,0,0,0,0,0,0,0,0,0,0,0,0,0,0,0,0,0,0,0,0,0,0,0,0,0,0,0,0]}],[{"header":{"parameterUnit":"kt","parameterCategory":2,"dx":1,"dy":1,"la1":30.253999710083008,"la2":30.299108505249023,"lo1":-89.0895004272461,"lo2":-89.04439544677734,"nx":28,"ny":28,"refTime":"2022-09-21T21:00:00:Z","depth":0,"parameterNumber":2,"parameterNumberName":"V-component_of_WINDS"},"data":[4.4724,4.4756,4.4725,4.4747,4.4723,4.4733,4.4726,4.4715,4.4697,4.4706,4.4705,4.4677,4.4648,4.464,4.4637,4.4625,4.4627,4.4661,4.464,4.4515,4.4495,4.4477,4.4467,4.4661,4.4662,4.4775,4.4776,4.4777,4.4635,4.4611,4.4614,4.4595,4.4597,4.4545,4.4526,4.4531,4.4542,4.4521,4.4518,4.4523,4.4523,4.4481,4.4475,4.449,4.4465,4.4491,4.449,4.4486,4.435,4.434,4.4511,4.4511,4.4511,4.4511,4.4511,4.4511,4.4465,4.4485,4.4455,4.4457,4.4439,4.4427,4.4441,4.4406,4.4408,4.4398,4.436,4.4371,4.4344,4.4322,4.4307,4.4315,4.4281,4.4299,4.4304,4.4309,4.432,4.4162,4.4312,4.4312,4.4311,4.4311,4.431,0,4.433,4.4302,4.4302,4.4293,4.4293,4.4283,4.4268,4.4276,4.4206,4.4211,4.4215,4.4213,4.4207,4.4208,4.4196,4.4176,4.4123,4.4113,4.4126,4.4145,4.4164,4.4155,4.3936,4.411,4.4108,4.4106,4.4105,4.4105,4.4156,4.4184,4.4137,4.4141,4.4125,4.4133,4.4131,4.4067,4.4069,4.4041,4.4063,4.4062,4.4058,4.4071,4.4029,4.4025,4.4,4.4069,4.3999,4.4016,4.4001,4.4001,4.4003,4.4085,4.4087,4.4089,4.4091,0,4.4062,4.4009,4.4041,4.3992,4.398,4.4012,4.397,4.3988,4.3951,4.397,4.3971,4.3914,4.3919,4.3865,4.3861,4.3833,4.3886,4.3861,4.3895,4.3887,4.3945,4.394,4.4139,4.4162,4.3959,4.3961,4.3963,0,4.3893,4.3932,4.3851,4.3873,4.3913,4.3847,4.3889,4.3862,4.3836,4.3851,4.3781,4.3797,4.3725,4.3733,4.3692,4.3725,4.3724,4.3705,4.3694,4.3712,4.3714,4.3712,4.3703,4.3666,4.3665,4.3664,4.3664,0,4.3751,4.3752,4.3787,4.3779,4.373,4.3747,4.3728,4.3699,4.3698,4.3688,4.3687,4.368,4.3677,4.3673,4.362,4.3574,4.366,4.3585,4.364,4.3641,4.3662,4.3662,4.3851,4.3662,4.3662,4.3662,4.3661,0,4.3606,4.3597,4.3655,4.3612,4.3615,4.3638,4.3626,4.3633,4.3608,4.3583,4.3574,4.3521,4.3546,4.3476,4.3509,4.3465,4.3466,4.3449,4.3452,4.3451,4.3375,4.3489,4.3674,4.3692,4.345,4.3448,4.3447,0,4.3458,4.3502,4.3445,4.3502,4.3514,4.3434,4.3458,4.3438,4.3406,4.3412,4.3377,4.3385,4.3322,4.3317,4.334,4.3304,4.3363,4.3295,4.3306,4.3307,4.3316,4.3485,4.3526,4.3639,4.3423,4.3426,4.3428,0,4.3336,4.3275,4.3289,4.3277,4.3238,4.3249,4.3277,4.3269,4.3277,4.3261,4.3283,4.3293,4.3245,4.3238,4.3194,4.3222,4.3321,4.3167,4.3165,4.3197,4.3407,4.3446,4.3465,4.3286,4.3289,4.3291,4.3409,0,4.3131,4.3146,4.3181,4.3157,4.3156,4.3188,4.3129,4.3136,4.3093,4.3059,4.309,4.3059,4.3053,4.306,4.3019,4.3098,4.3076,4.3026,4.2955,4.3066,4.3103,4.3119,4.2903,4.2901,4.2899,4.2897,0,0,4.3002,4.3022,4.2958,4.2982,4.2977,4.2893,4.2933,4.2919,4.2893,4.2891,4.2851,4.2861,4.2838,4.2882,4.2912,4.291,4.2919,4.2882,4.3013,4.3027,4.3039,4.308,4.3097,4.2893,4.2893,4.2892,4.2891,0,4.2915,4.2891,4.2931,4.2913,4.2884,4.2845,4.2855,4.2811,4.2791,4.2821,4.2752,4.2763,4.2774,4.2758,4.2752,4.2875,4.2823,4.2877,4.2963,4.2995,4.3011,4.3024,4.3069,4.3085,4.2886,4.2887,4.2887,0,4.2784,4.2752,4.2764,4.2749,4.2729,4.2745,4.2655,4.2675,4.2685,4.2593,4.2624,4.2599,4.2574,4.2623,4.2643,4.2607,4.2739,4.2687,4.2698,4.2699,4.2726,4.2746,4.2763,4.2537,4.2536,4.2535,0,0,4.2717,4.273,4.2675,4.2726,4.2718,4.2661,4.2663,4.262,4.2598,4.259,4.2557,4.2538,4.2543,4.2548,4.2549,4.2612,4.2602,4.2646,4.2662,4.2676,4.2685,4.2716,4.2735,4.2532,4.2532,4.2531,0,0,4.2685,4.2622,4.2583,4.2634,4.2616,4.2565,4.2599,4.2549,4.2545,4.2534,4.2464,4.2456,4.2501,4.2479,4.2437,4.2523,4.2454,4.2463,4.2536,4.2556,4.2572,4.2576,4.2341,0,0,0,0,0,4.2565,4.263,4.2594,4.2594,4.2575,4.2585,4.2582,4.2525,4.2476,4.2504,4.2469,4.2412,4.2442,4.2402,4.2403,4.2452,4.2484,4.2492,4.25,4.2609,4.263,4.2648,0,0,0,0,0,0,4.2564,4.2564,4.2592,4.2546,4.2541,4.2582,4.2487,4.2473,4.2472,4.246,4.242,4.2411,4.2362,4.2397,4.24,4.2447,4.234,4.2487,4.2494,4.2501,4.2616,4.2634,4.2649,0,0,0,0,0,4.2563,4.2563,4.2547,4.2544,4.254,4.2479,4.2484,4.2472,4.247,4.2414,4.2403,4.2427,4.2365,4.2363,4.2398,4.2447,4.2338,4.2339,4.2492,4.2498,4.2503,4.2625,0,0,0,0,0,0,4.2563,4.2552,4.2545,4.2541,4.2515,4.2476,4.2468,4.2471,4.2423,4.2412,4.2417,4.2409,4.2368,4.2366,4.2365,4.2451,4.2337,4.2338,4.2338,4.2496,4.2501,4.2505,0,0,0,0,0,0,4.2552,4.255,4.2543,4.2509,4.2501,4.2473,4.2466,4.2487,4.2423,4.2427,4.2419,4.2414,4.237,4.2368,4.2367,4.2403,4.2336,4.2336,4.2337,4.2338,4.25,4.2503,0,0,0,0,0,0,4.255,4.2548,4.251,4.2504,4.2497,4.2454,4.2491,4.2475,4.2394,4.2431,4.2385,4.2381,4.2375,4.2372,4.2369,4.2406,4.2404,4.2336,4.2336,4.2337,4.2337,0,0,0,0,0,0,0,4.2548,4.2573,4.2565,4.2499,4.2493,4.251,4.2509,4.2508,4.2393,4.2389,4.2386,4.2383,4.233,4.2331,4.2332,4.2409,0,0,4.2335,4.2336,0,0,0,0,0,0,0,0,4.2572,4.2573,4.2565,4.2564,4.2563,4.2509,4.2509,4.2508,4.2392,4.239,4.2387,4.2384,4.233,4.2331,4.2332,0,0,0,0,0,0,0,0,0,0,0,0,0,0,0,4.2565,4.2564,0,4.2509,4.2509,4.2508,4.2392,4.239,4.2387,4.2385,4.2331,4.2331,4.2332,0,0,0,0,0,0,0,0,0,0,0,0,0,0,0,0,0,0,0,0,0,0,0,0,0,0,0,0,0,0,0,0,0,0,0,0,0,0,0,0,0,0,0,0,0,0,0,0,0,0,0,0,0,0,0,0,0,0,0,0,0,0,0,0,0,0,0,0,0]}]]]